Tracking 29892 objects as of 21-Nov-2024
HD Live streaming from Space Station
objects crossing your sky now

STARLINK-5474

Track STARLINK-5474 now!
10-day predictions
STARLINK-5474 is classified as:


NORAD ID: 55665
Int'l Code: 2023-021AP
Perigee: 577.2 km
Apogee: 581.2 km
Inclination: 70.0 °
Period: 96.1 minutes
Semi major axis: 6950 km
RCS: Unknown
Launch date: February 17, 2023
Source: United States (US)
Launch site: AIR FORCE WESTERN TEST RANGE (AFWTR)
Your satellite tracking list
Your tracking list is empty




NASA's NSSDC Master Catalog

Two Line Element Set (TLE):
1 55665U 23021AP  24325.88147831 -.00000068  00000-0  20630-5 0  9992
2 55665  69.9991 279.0503 0002855 269.8899  90.1933 14.98328644 98314
Source of the keplerian elements: AFSPC